Weather History for Salina, KS

Change the Weather History Date:

Thursday, August 29, 2013

  Actual Average Record
Temperature  
Mean Temperature 86 °F 77 °F  
Max Temperature 100 °F 89 °F 106 °F (1954)
Min Temperature 72 °F 66 °F 43 °F (1917)
Degree Days  
Heating Degree Days 0 0  
Month to date heating degree days 0 0  
Since 1 June heating degree days 10 7  
Since 1 July heating degree days 3 0  
Cooling Degree Days 21 12  
Month to date cooling degree days 380 430  
Year to date cooling degree days 1351 1384  
Since 1 June cooling degree days 1210 1256  
Growing Degree Days 36 (Base 50)    
Moisture  
Dew Point 67 °F    
Average Humidity 58    
Maximum Humidity 87    
Minimum Humidity 29    
Precipitation  
Precipitation 0.00 in 0.12 in 1.73 in (2003)
Month to date precipitation 5.00 3.71  
Year to date precipitation 26.24 24.10  
Sea Level Pressure  
Sea Level Pressure 29.93 in    
Wind  
Wind Speed 9 mph (South)    
Max Wind Speed 20 mph    
Max Gust Speed 24 mph    
Visibility 10 miles    
Events      
T = Trace of Precipitation, MM = Missing Value Source: NWS Daily Summary

Daily Weather History Graph

Daily Weather History Graph

Search for Another Location

Airport:

Trip Planner

Search our weather history database for the weather conditions in past years. The results will help you decide how hot, cold, wet, or windy it might be!

Date:

Astronomy

Aug. 29, 2013 Rise Set
Actual Time 6:57 AM CDT 8:04 PM CDT
Civil Twilight 6:29 AM CDT 8:32 PM CDT
Nautical Twilight 5:57 AM CDT 9:04 PM CDT
Astronomical Twilight 5:22 AM CDT 9:38 PM CDT
Moon 12:51 AM CDT (8/29) 3:33 PM CDT (8/29)
Length of Visible Light 14h 02m
Length of Day
13h 07m
Last Quarter, 38% of the Moon is Illuminated
Aug 29
Last Quarter
Sep 5
New
Sep 12
First Quarter
Sep 19
Full
Sep 26
Last Quarter

Hourly Weather History & Observations

Time (CDT) Temp. Heat Index Dew Point Humidity Pressure Visibility Wind Dir Wind Speed Gust Speed Precip Events Conditions
12:53 AM 77.0 °F - 70.0 °F 79% 29.97 in 10.0 mi SSE 5.8 mph - N/A   Clear
1:53 AM 78.1 °F - 71.1 °F 79% 29.96 in 10.0 mi SSE 9.2 mph - N/A   Clear
2:53 AM 75.9 °F - 71.1 °F 85% 29.95 in 10.0 mi South 8.1 mph - N/A   Clear
3:53 AM 75.0 °F - 70.0 °F 84% 29.95 in 10.0 mi South 6.9 mph - N/A   Clear
4:53 AM 75.0 °F - 69.1 °F 82% 29.95 in 10.0 mi South 6.9 mph - N/A   Clear
5:53 AM 73.0 °F - 69.1 °F 87% 29.96 in 10.0 mi South 5.8 mph - N/A   Clear
6:53 AM 73.0 °F - 68.0 °F 84% 29.96 in 10.0 mi SSE 8.1 mph - N/A   Clear
7:53 AM 73.9 °F - 69.1 °F 85% 29.96 in 10.0 mi South 5.8 mph - N/A   Clear
8:53 AM 80.1 °F 82.9 °F 69.1 °F 69% 29.96 in 10.0 mi South 8.1 mph - N/A   Clear
9:53 AM 86.0 °F 90.1 °F 69.1 °F 57% 29.97 in 10.0 mi South 8.1 mph - N/A   Clear
10:53 AM 89.1 °F 92.9 °F 68.0 °F 50% 29.97 in 10.0 mi South 8.1 mph - N/A   Clear
11:53 AM 91.9 °F 96.9 °F 69.1 °F 47% 29.96 in 10.0 mi South 9.2 mph - N/A   Clear
12:53 PM 96.1 °F 101.0 °F 68.0 °F 40% 29.95 in 10.0 mi SSW 9.2 mph - N/A   Clear
1:53 PM 99.0 °F 102.9 °F 66.0 °F 34% 29.93 in 10.0 mi SSW 11.5 mph - N/A   Clear
2:53 PM 100.0 °F 103.0 °F 64.0 °F 31% 29.92 in 10.0 mi SSW 12.7 mph 18.4 mph N/A   Clear
3:53 PM 100.0 °F 101.8 °F 63.0 °F 29% 29.90 in 10.0 mi SSW 12.7 mph 23.0 mph N/A   Clear
4:53 PM 100.0 °F 101.8 °F 63.0 °F 29% 29.88 in 10.0 mi SSW 12.7 mph 21.9 mph N/A   Clear
5:53 PM 98.1 °F 99.1 °F 62.1 °F 30% 29.88 in 10.0 mi SSW 16.1 mph 24.2 mph N/A   Clear
6:53 PM 95.0 °F 97.0 °F 64.0 °F 36% 29.88 in 10.0 mi South 9.2 mph - N/A   Clear
7:53 PM 87.1 °F 89.2 °F 66.0 °F 49% 29.89 in 10.0 mi SSE 9.2 mph - N/A   Clear
8:53 PM 81.0 °F 83.0 °F 66.0 °F 60% 29.90 in 10.0 mi South 8.1 mph - N/A   Clear
9:53 PM 77.0 °F - 66.0 °F 69% 29.90 in 10.0 mi South 4.6 mph - N/A   Clear
10:53 PM 75.0 °F - 64.9 °F 71% 29.90 in 10.0 mi SSE 10.4 mph - N/A   Clear
11:53 PM 73.9 °F - 64.0 °F 71% 29.90 in 10.0 mi South 8.1 mph - N/A   Clear